Location: Derby
(52.9213°N, 1.4761°W)
Time: 07:19:06
(UTC+01:00)

Vanguard 3 - Visible Passes

Search period start: 24 May 2025 00:00
Search period end: 03 June 2025 00:00
Orbit: 508 x 3215 km, 33.3° (Epoch: 23 May)

Date Brightness Start Highest point End Pass type
(mag) Time Alt. Az. Time Alt. Az. Time Alt. Az.
25 May 9.6 03:48:10 10° SSW 03:50:52 12° S 03:53:11 10° SSE visible
26 May 9.9 02:30:10 11° S 02:30:56 12° SSE 02:33:30 10° SSE visible
27 May 9.6 03:17:34 12° SSW 03:21:37 15° S 03:25:35 10° SE visible
28 May 9.9 02:00:51 15° S 02:01:31 15° SSE 02:06:04 10° SE visible
29 May 10.2 00:43:56 11° SE 00:43:56 11° SE 00:45:07 10° SE visible
29 May 9.6 02:47:50 14° SSW 02:52:16 19° S 02:57:28 10° SE visible
30 May 9.9 01:30:34 18° S 01:31:57 18° SSE 01:37:57 10° SE visible
30 May 9.4 03:35:48 10° SW 03:42:53 20° S 03:47:57 10° SE visible
31 May 10.2 00:12:38 15° SSE 00:12:38 15° SSE 00:17:19 10° SE visible
31 May 9.6 02:16:23 15° SSW 02:22:45 22° S 02:29:07 10° SE visible
31 May 10.5 22:47:07 10° SSE 22:50:30 11° SSE 22:53:38 10° SE visible
01 Jun 9.9 00:52:12 10° SSW 01:02:12 21° SSE 01:09:31 10° ESE visible
01 Jun 9.5 03:04:35 10° SW 03:13:25 23° S 03:19:31 10° SE visible
01 Jun 10.2 23:31:48 10° S 23:41:21 18° SSE 23:48:54 10° ESE visible
02 Jun 9.7 01:42:15 10° SW 01:53:04 25° S 02:00:32 10° SE visible
02 Jun 9.4 03:56:10 10° WSW 04:03:53 21° SSW 04:09:20 10° SSE visible
02 Jun 10.6 22:13:47 10° SSE 22:20:22 13° SSE 22:26:12 10° SE visible
